Location: Ar Ranvel
(48.3000°N, 4.8833°W)
Time: 22:03:38
(UTC+00:00)

Meteor 2-10 Rocket - Pass Details

Date: 27 October 2021
Orbit: 733 x 885 km, 81.2° (Epoch: 30 November)

Event Time Altitude Azimuth Distance (km) Brightness Sun altitude
Rises 04:50:46 0° 352° (N) 3,200 6.7 -21.6°
Reaches altitude 10° 04:53:13 10° 358° (N) 2,260 6.0 -21.2°
Maximum altitude 04:58:05 48° 73° (ENE) 964 4.4 -20.4°
Drops below altitude 10° 05:02:54 10° 148° (SSE) 2,235 6.3 -19.6°
Sets 05:05:18 0° 154° (SSE) 3,160 7.0 -19.2°
